Home > Time Zones > World Clock > Weather > Sweden > Lund > Past weeks

Flag for Sweden Weather past 2 weeks in Lund, Sweden

Now
70 °F

Sunny.


Feels Like: 70 °F
Forecast: 64 / 83 °F
Wind: 2 mph from North

Location: Malmo / Sturup

Current Time: Jul 28, 2014 at 8:27:23 AM

Latest Report: Jul 28, 2014 at 7:50 AM


Visibility: 10 mi

Pressure: 29.95 "Hg

Humidity: 88%

Dew point: 66 °F

Location of LundLocation

Historic Weather in Lund — Graph

°F

Lund temperature yesterday

Maximum temperature yesterday: 81 °F (at 12:20 PM)
Minimum temperature yesterday: 61 °F (at 1:50 AM)
Average temperature yesterday: 71 °F

Past Weeks' High & Low Weather Summary

 TemperatureHumidityPressure
High82 °F (Jul 25, 1:50 PM)100% (Jul 13, 11:50 AM)30.24 "Hg (Jul 13, 11:50 AM)
Low50 °F (Jul 17, 2:20 AM)36% (Jul 23, 12:20 PM)29.62 "Hg (Jul 13, 10:20 AM)
Average68 °F73%30.03 "Hg
* Reported Jul 13 7:20 AM — Jul 28 7:20 AM, Lund, Weather by CustomWeather, © 2014

Note: Actual official high and low records may vary slightly from our data, if they occured in-between our weather recording intervals... More about our weather records

Advertising

Lund weather history for previous 24 hours

 ConditionsComfort  
Time TempWeatherWind HumidityBarometerVisibility
7:20 AM
Jul 28
64 °FFog.2 mph100%29.95 "Hg5 mi
6:50 AM63 °FSunny.3 mph100%29.92 "Hg10 mi
6:20 AM61 °FLight fog.3 mph94%29.92 "Hg1 mi
5:50 AM59 °FLight fog.No wind100%29.92 "Hg0 mi
5:20 AM61 °FLight fog.No wind100%29.92 "Hg0 mi
4:20 AM59 °FLight fog.3 mph100%29.92 "Hg0 mi
3:50 AM59 °FClear.3 mph100%29.92 "Hg10 mi
3:20 AM61 °FClear.2 mph94%29.92 "Hg10 mi
2:50 AM63 °FClear.1 mph100%29.92 "Hg10 mi
2:20 AM61 °FLight fog.5 mph100%29.95 "Hg3 mi
1:20 AM63 °FFog.No wind100%29.95 "Hg6 mi
12:50 AM63 °FFog.No wind100%29.95 "Hg6 mi
12:20 AM64 °FFog.2 mph94%29.95 "Hg5 mi
11:50 PM
Jul 27
64 °FClear.2 mph94%29.95 "Hg10 mi
11:20 PM66 °FClear.2 mph94%29.95 "Hg10 mi
10:50 PM66 °FClear.3 mph94%29.95 "Hg10 mi
10:20 PM68 °FSunny.2 mph88%29.95 "Hg10 mi
9:50 PM68 °FSunny.6 mph88%29.95 "Hg10 mi
9:20 PM70 °FSunny.5 mph83%29.95 "Hg10 mi
8:50 PM73 °FSunny.3 mph69%29.95 "Hg10 mi
8:20 PM75 °FSunny.5 mph69%29.95 "Hg10 mi
7:50 PM77 °FSunny.5 mph61%29.92 "Hg10 mi
7:20 PM77 °FSunny.7 mph57%29.92 "Hg10 mi
6:50 PM79 °FSunny.6 mph58%29.92 "Hg10 mi
6:20 PM77 °FSunny.9 mph61%29.92 "Hg10 mi
5:50 PM79 °FSunny.9 mph58%29.92 "Hg10 mi
5:20 PM79 °FSunny.9 mph58%29.92 "Hg10 mi
4:20 PM79 °FSunny.13 mph58%29.92 "Hg10 mi
3:50 PM79 °FSunny.13 mph58%29.92 "Hg10 mi
3:20 PM81 °FSunny.13 mph54%29.92 "Hg10 mi
2:50 PM79 °FSunny.12 mph54%29.95 "Hg10 mi
2:20 PM81 °FSunny.13 mph54%29.95 "Hg10 mi
1:50 PM81 °FSunny.13 mph58%29.95 "Hg10 mi
1:20 PM81 °FSunny.12 mph54%29.95 "Hg10 mi
12:50 PM81 °FSunny.9 mph54%29.95 "Hg10 mi
12:20 PM81 °FPassing clouds.8 mph58%29.95 "HgN/A
11:50 AM79 °FSunny.9 mph58%29.98 "Hg10 mi
11:20 AM77 °FSunny.9 mph61%29.98 "Hg10 mi
10:50 AM79 °FPassing clouds.8 mph61%29.98 "HgN/A
10:20 AM77 °FSunny.8 mph65%29.98 "Hg10 mi
9:50 AM77 °FSunny.8 mph65%29.98 "Hg10 mi
9:20 AM75 °FSunny.9 mph69%29.98 "Hg10 mi
8:50 AM73 °FSunny.8 mph74%29.98 "Hg10 mi
8:20 AM72 °FSunny.7 mph78%29.98 "Hg10 mi
Weather by CustomWeather, © 2014

See weather overviewHow to use our weather pages